Location: Coopersdale
(40.3556°N, 78.9372°W)
Time: 20:04:40
(UTC+00:00)

Transit 4A - Pass Details

Date: 22 January 2021
Orbit: 866 x 978 km, 66.8° (Epoch: 26 February)

Event Time Altitude Azimuth Distance (km) Brightness Sun altitude
Rises 07:22:34 0° 341° (NNW) 3,643 - -57.8°
Reaches altitude 10° 07:27:21 10° 13° (NNE) 2,666 - -57.0°
Maximum altitude 07:29:22 12° 32° (NNE) 2,540 - -56.7°
Drops below altitude 10° 07:31:22 10° 52° (NE) 2,638 - -56.4°
Exits shadow 07:35:23 - 81° (E) 3,384 11.3 -55.7°
Sets 07:36:01 0° 84° (E) 3,545 11.4 -55.6°
